Weather in Kuvakino

Russia / Republic of Bashkortostan     56°10′15″N   54°30′27″E
temp.,
°C
wind,
m/s
gust,
m/s
humid.,
%
clouds,
%
prec.,
mm/h
press.,
hPa
HPBL,
m
9 march, tue
tue923:00−10sw499220 0.0 1002223
02:00−13sw339644 0.0 100150
05:00−13w129672 0.0 100220
08:00−14w2397100 0.0 100431
11:00−10w359386 0.0 1007257
14:00−7wsw249084 0.0 1009429
17:00−7sw239090 0.1 1009413
20:00−12sw119795 0.0 101021
10 march, wed
wed1023:00−13ese009895 0.1 101020
02:00−14ne129783 0.1 100820
05:00−14ne379685 0.1 1008191
08:00−16nne51093100 0.1 1007325
11:00−17n61189100 0.1 1007382
14:00−15n71285100 0.0 1008497
17:00−15n71381100 0.0 1009616
20:00−17nnw61384100 0.0 1011618
11 march, thu
thu1123:00−19n61385100 0.0 1013565
02:00−22nnw5128983 0.0 1014383
05:00−24nw499468 0.0 1015200
08:00−27nw369745 0.0 101797
11:00−21w359443 0.0 1017278
14:00−17w479295 0.0 1017473
17:00−14wnw589097 0.1 1017653
20:00−13w41193100 0.1 1017485
12 march, fri
fri1223:00−11w41095100 0.4 1018502
02:00−9wnw41192100 0.1 1018545
05:00−13wnw41091100 0.2 1019326
08:00−14wnw41093100 0.0 1022344
11:00−12wnw5989100 0.0 1023505
14:00−8w598054 0.0 1024648
17:00−8w6107827 0.0 1025777
20:00−11w4118834 0.0 1026377
13 march, sat
sat1323:00−12w4128858 0.0 1028410
02:00−13w4109293 0.0 1029359
05:00−16wsw389689 0.0 1031171
08:00−17wsw3894100 0.0 1033198
11:00−13wsw468997 0.0 1033301
14:00−10wsw358789 0.0 1034338
17:00−9wsw368795 0.0 1033333
20:00−12sw339491 0.0 103267